Location: Chandrammap?lem
(16.9200°N, 81.0051°E)
Time: 02:30:18
(UTC+00:00)

USA 59 Rocket - Pass Details

Date: 29 May 2024
Orbit: 383 x 1743 km, 63.3° (Epoch: 21 June)

Event Time Altitude Azimuth Distance (km) Brightness Sun altitude
Rises 16:45:47 0° 343° (NNW) 3,107 4.4 -43.2°
Reaches altitude 10° 16:47:52 10° 348° (NNW) 2,350 3.5 -43.5°
Enters shadow 16:48:16 13° 350° (N) 2,207 3.4 -43.5°
